Weather History for Hamilton, OH

Change the Weather History Date:

Sunday, September 8, 2013

  Actual Average (KCVG) Record (KCVG)
Temperature  
Mean Temperature 76 °F 71 °F  
Max Temperature 91 °F 81 °F 101 °F (1939)
Min Temperature 62 °F 60 °F 44 °F (1956)
Degree Days  
Heating Degree Days 0 1  
Month to date heating degree days 2  
Since 1 July heating degree days 2  
Cooling Degree Days 11 6  
Month to date cooling degree days 58  
Year to date cooling degree days 1026  
Growing Degree Days 26 (Base 50)    
Moisture  
Dew Point 65 °F    
Average Humidity 82    
Maximum Humidity 100    
Minimum Humidity 42    
Precipitation  
Precipitation 0.00 in 0.09 in 1.56 in (1950)
Month to date precipitation 0.69  
Year to date precipitation 30.48  
Snow  
Snow 0.00 in 0.00 in 0.00 in ()
Month to date snowfall 0.0  
Since 1 July snowfall 0.0  
Since 1 September snowfall 0.0  
Snow Depth -    
Sea Level Pressure  
Sea Level Pressure 29.98 in    
Wind  
Wind Speed 1 mph (NE)    
Max Wind Speed 9 mph    
Max Gust Speed -    
Visibility 5 miles    
Events Fog , Rain    
T = Trace of Precipitation, MM = Missing Value Source: NWS Daily Summary

Daily Weather History Graph

Daily Weather History Graph

Search for Another Location

Airport:

Trip Planner

Search our weather history database for the weather conditions in past years. The results will help you decide how hot, cold, wet, or windy it might be!

Date:

Astronomy

Sep. 08, 2013 Rise Set
Actual Time 7:13 AM EDT 7:57 PM EDT
Civil Twilight 6:45 AM EDT 8:24 PM EDT
Nautical Twilight 6:13 AM EDT 8:56 PM EDT
Astronomical Twilight 5:40 AM EDT 9:29 PM EDT
Moon 10:28 AM EDT (9/8) 9:33 PM EDT (9/8)
Length of Visible Light 13h 38m
Length of Day
12h 44m
Waxing Crescent, 11% of the Moon is Illuminated
Sep 8
Waxing Crescent
Sep 12
First Quarter
Sep 19
Full
Sep 26
Last Quarter
Oct 4
New

Hourly Weather History & Observations

Time (EDT) Temp. Heat Index Dew Point Humidity Pressure Visibility Wind Dir Wind Speed Gust Speed Precip Events Conditions
12:53 AM 70.0 °F - 66.9 °F 90% 29.97 in 8.0 mi Calm Calm - N/A   Mostly Cloudy
1:53 AM 69.1 °F - 66.9 °F 93% 29.97 in 6.0 mi Calm Calm - N/A   Scattered Clouds
2:53 AM 69.1 °F - 66.0 °F 90% 29.97 in 7.0 mi Calm Calm - N/A   Overcast
3:53 AM 66.0 °F - 64.0 °F 93% 29.97 in 3.0 mi Calm Calm - N/A   Clear
4:18 AM 64.4 °F - 62.6 °F 94% 29.98 in 2.5 mi Calm Calm - N/A   Clear
4:33 AM 64.4 °F - 64.4 °F 100% 29.98 in 4.0 mi Calm Calm - N/A   Clear
4:53 AM 64.9 °F - 64.0 °F 97% 29.97 in 3.0 mi Calm Calm - N/A   Clear
5:08 AM 64.4 °F - 62.6 °F 94% 29.98 in 2.5 mi Calm Calm - N/A   Clear
5:43 AM 64.4 °F - 62.6 °F 94% 29.98 in 1.8 mi Calm Calm - N/A   Clear
5:47 AM 64.4 °F - 62.6 °F 94% 29.98 in 3.0 mi Calm Calm - N/A   Clear
5:49 AM 64.4 °F - 62.6 °F 94% 29.98 in 1.8 mi Calm Calm - N/A   Clear
5:53 AM 64.0 °F - 62.1 °F 93% 29.97 in 1.5 mi Calm Calm - N/A   Clear
5:59 AM 64.4 °F - 62.6 °F 94% 29.98 in 2.0 mi Calm Calm - N/A   Clear
6:03 AM 62.6 °F - 62.6 °F 100% 29.98 in 1.5 mi Calm Calm - N/A   Clear
6:15 AM 62.6 °F - 62.6 °F 100% 29.98 in 0.5 mi Calm Calm - N/A Fog Fog
6:24 AM 62.6 °F - 60.8 °F 94% 29.98 in 1.0 mi Calm Calm - N/A   Mist
6:35 AM 62.6 °F - 62.6 °F 100% 29.98 in 3.0 mi Calm Calm - N/A   Scattered Clouds
6:40 AM 62.6 °F - 62.6 °F 100% 29.98 in 1.2 mi Calm Calm - N/A   Scattered Clouds
6:48 AM 64.4 °F - 62.6 °F 94% 29.99 in 0.2 mi Calm Calm - N/A Fog Fog
6:53 AM 63.0 °F - 62.1 °F 97% 29.98 in 0.5 mi Calm Calm - N/A Fog Fog
6:56 AM 62.6 °F - 62.6 °F 100% 29.99 in 2.0 mi Calm Calm - N/A   Mostly Cloudy
7:03 AM 64.4 °F - 62.6 °F 94% 29.99 in 4.0 mi Calm Calm - N/A   Mostly Cloudy
7:23 AM 64.4 °F - 62.6 °F 94% 30.00 in 1.8 mi Calm Calm - N/A   Mostly Cloudy
7:30 AM 64.4 °F - 62.6 °F 94% 30.00 in 1.0 mi Calm Calm - N/A   Scattered Clouds
7:43 AM 64.4 °F - 62.6 °F 94% 30.00 in 2.0 mi Calm Calm - N/A   Mostly Cloudy
7:53 AM 66.0 °F - 64.0 °F 93% 30.00 in 2.5 mi Calm Calm - N/A   Mostly Cloudy
8:31 AM 69.8 °F - 66.2 °F 88% 30.00 in 3.0 mi Calm Calm - N/A   Clear
8:53 AM 72.0 °F - 68.0 °F 87% 30.00 in 5.0 mi Calm Calm - N/A   Clear
9:53 AM 77.0 °F - 66.9 °F 71% 30.00 in 9.0 mi Calm Calm - 0.00 in Rain Light Rain
10:53 AM 81.0 °F 83.3 °F 66.9 °F 62% 30.00 in 10.0 mi North 4.6 mph - 0.00 in   Clear
11:53 AM 84.9 °F 88.2 °F 68.0 °F 57% 29.99 in 10.0 mi Variable 3.5 mph - N/A   Clear
12:53 PM 86.0 °F 88.2 °F 66.0 °F 51% 29.99 in 10.0 mi WNW 6.9 mph - N/A   Partly Cloudy
1:53 PM 88.0 °F 89.6 °F 64.9 °F 46% 29.99 in 10.0 mi Calm Calm - N/A   Scattered Clouds
2:53 PM 87.1 °F 88.9 °F 64.9 °F 48% 29.97 in 10.0 mi Calm Calm - N/A   Overcast
3:53 PM 89.1 °F 90.3 °F 64.0 °F 43% 29.95 in 10.0 mi NW 4.6 mph - N/A   Scattered Clouds
4:53 PM 90.0 °F 91.7 °F 64.9 °F 43% 29.94 in 10.0 mi NNE 3.5 mph - N/A   Overcast
5:53 PM 89.1 °F 90.0 °F 63.0 °F 42% 29.94 in 10.0 mi Calm Calm - N/A   Mostly Cloudy
6:53 PM 84.0 °F 87.8 °F 69.1 °F 61% 29.94 in 10.0 mi Calm Calm - N/A   Clear
7:53 PM 75.9 °F - 69.1 °F 79% 29.95 in 10.0 mi North 4.6 mph - N/A   Mostly Cloudy
8:18 PM 80.6 °F 83.2 °F 68.0 °F 65% 29.97 in 10.0 mi NE 9.2 mph - N/A   Mostly Cloudy
8:53 PM 79.0 °F - 68.0 °F 69% 29.98 in 10.0 mi East 9.2 mph - N/A   Partly Cloudy
9:53 PM 75.9 °F - 66.9 °F 74% 29.99 in 10.0 mi East 6.9 mph - N/A   Clear
10:53 PM 75.0 °F - 66.0 °F 73% 30.00 in 10.0 mi ENE 3.5 mph - N/A   Clear
11:53 PM 71.1 °F - 66.0 °F 84% 30.01 in 10.0 mi ENE 4.6 mph - N/A   Clear